CW1238 Weather Reports


Display with metric or nautical units.
time (UTC)temp
F
wind
direction
speed
MPH
gust
MPH
rain 1hr
in
rain 24hr
in
rain mn
in
humidity
%
barometer
mb
20220123161113 2 315 3.0 5.0 0.00 0.00 0.00 78 1015.7
20220123160553 2 315 4.0 5.0 0.00 0.00 0.00 78 1015.7
20220123160113 2 0 4.0 5.0 0.00 0.00 0.00 78 1015.7
20220123153552 1 338 2.0 2.0 0.00 0.00 0.00 78 1015.7
20220123153052 1 315 4.0 5.0 0.00 0.00 0.00 78 1015.7
20220123152552 0 338 5.0 5.0 0.00 0.00 0.00 78 1015.7
20220123151552 0 292 5.0 5.0 0.00 0.00 0.00 78 1015.7
20220123151052 0 270 3.0 3.0 0.00 0.00 0.00 78 1015.7
20220123150552 -1 338 3.0 3.0 0.00 0.00 0.00 78 1015.7
20220123150112 -1 338 3.0 3.0 0.00 0.00 0.00 78 1015.7
20220123145612 -1 315 3.0 4.0 0.00 0.00 0.00 78 1015.7
20220123145052 -2 292 2.0 4.0 0.00 0.00 0.00 78 1015.7
20220123144612 -2 338 5.0 6.0 0.00 0.00 0.00 78 1015.7
20220123143552 -3 338 3.0 3.0 0.00 0.00 0.00 78 1015.7
20220123142052 -4 315 4.0 5.0 0.00 0.00 0.00 78 1015.7
20220123141051 -4 0 4.0 4.0 0.00 0.00 0.00 78 1015.7
20220123140551 -4 0 4.0 4.0 0.00 0.00 0.00 78 1014.7
20220123140111 -4 0 4.0 4.0 0.00 0.00 0.00 78 1014.7
20220123135551 -4 315 4.0 4.0 0.00 0.00 0.00 78 1014.7
20220123135051 -4 0 3.0 3.0 0.00 0.00 0.00 78 1015.7
20220123134551 -4 0 3.0 3.0 0.00 0.00 0.00 78 1015.7
20220123133051 -3 0 3.0 4.0 0.00 0.00 0.00 78 1015.7
20220123132631 -3 0 3.0 4.0 0.00 0.00 0.00 78 1015.7
20220123131611 -3 270 4.0 4.0 0.00 0.00 0.00 78 1015.7
20220123131051 -3 315 4.0 6.0 0.00 0.00 0.00 78 1014.7
20220123130611 -3 0 5.0 6.0 0.00 0.00 0.00 78 1014.7
20220123130051 -2 0 4.0 6.0 0.00 0.00 0.00 78 1014.7
20220123125551 -2 0 5.0 6.0 0.00 0.00 0.00 78 1014.7
20220123125051 -2 0 4.0 4.0 0.00 0.00 0.00 78 1014.7
20220123124611 -2 0 5.0 6.0 0.00 0.00 0.00 78 1014.7
20220123124051 -2 0 3.0 5.0 0.00 0.00 0.00 78 1013.7
20220123121050 -1 0 5.0 6.0 0.00 0.00 0.00 78 1014.7
20220123120550 -1 315 5.0 7.0 0.00 0.00 0.00 78 1014.7
20220123115610 0 0 7.0 8.0 0.00 0.00 0.00 78 1014.7
20220123115130 0 0 3.0 6.0 0.00 0.00 0.00 78 1014.7
20220123114550 0 315 7.0 7.0 0.00 0.00 0.00 78 1014.7
20220123113630 0 315 5.0 6.0 0.00 0.00 0.00 78 1014.7
20220123112610 1 315 7.0 7.0 0.00 0.00 0.00 78 1013.7
20220123110050 2 315 6.0 6.0 0.00 0.00 0.00 78 1013.7
20220123105050 2 338 7.0 8.0 0.00 0.00 0.00 78 1013.7
20220123104610 2 338 5.0 8.0 0.00 0.00 0.00 78 1013.7
20220123103550 3 338 6.0 6.0 0.00 0.00 0.00 78 1012.8
20220123103050 3 0 7.0 9.0 0.00 0.00 0.00 78 1012.8
20220123102049 3 338 7.0 7.0 0.00 0.00 0.00 78 1012.8
20220123101549 3 315 10.0 10.0 0.00 0.00 0.00 78 1012.8
20220123100609 4 292 7.0 7.0 0.00 0.00 0.00 78 1012.8
20220123100129 4 315 6.0 9.0 0.00 0.00 0.00 78 1012.8
20220123094109 5 315 6.0 19.0 0.00 0.00 0.00 78 1012.8
20220123093549 5 338 7.0 19.0 0.00 0.00 0.00 78 1012.8
20220123093109 5 338 5.0 7.0 0.00 0.00 0.00 78 1012.8
20220123092549 5 292 7.0 7.0 0.00 0.00 0.00 78 1012.8
20220123092109 5 338 4.0 4.0 0.00 0.00 0.00 78 1012.8
20220123091549 6 292 7.0 8.0 0.00 0.00 0.00 78 1012.8
20220123091049 6 292 3.0 3.0 0.00 0.00 0.00 78 1012.8
20220123085549 6 315 3.0 6.0 0.00 0.00 0.00 78 1012.8
20220123085048 6 338 4.0 8.0 0.00 0.00 0.00 78 1011.8
20220123084549 6 0 5.0 7.0 0.00 0.00 0.00 78 1011.8
20220123084108 7 338 4.0 6.0 0.00 0.00 0.00 78 1011.8
20220123083548 7 292 3.0 8.0 0.00 0.00 0.00 78 1010.8
20220123082048 8 0 4.0 7.0 0.00 0.00 0.00 78 1010.8
20220123081548 8 315 7.0 7.0 0.00 0.00 0.00 78 1010.8
20220123080548 8 338 5.0 7.0 0.00 0.00 0.00 78 1010.8
20220123080048 8 338 5.0 6.0 0.00 0.00 0.00 78 1010.8
20220123075228 9 315 6.0 6.0 0.00 0.00 0.00 78 1010.8
20220123074608 10 338 8.0 8.0 0.00 0.00 0.00 78 1010.8
20220123073148 10 338 6.0 7.0 0.00 0.00 0.00 78 1009.8
20220123072048 11 0 4.0 5.0 0.00 0.00 0.00 78 1008.8
20220123071048 11 292 5.0 7.0 0.00 0.00 0.00 78 1008.8
20220123070548 11 0 5.0 6.0 0.00 0.00 0.00 78 1008.8
20220123065047 11 338 4.0 5.0 0.00 0.00 0.00 78 1008.8
20220123063547 11 0 5.0 6.0 0.00 0.00 0.00 78 1008.8
20220123063047 11 22 4.0 5.0 0.00 0.00 0.00 78 1008.8
20220123061107 11 338 4.0 6.0 0.00 0.00 0.00 78 1008.8
20220123060127 11 338 3.0 7.0 0.00 0.00 0.00 78 1008.8
20220123055547 11 338 6.0 7.0 0.00 0.00 0.00 78 1008.8
20220123055047 11 338 3.0 7.0 0.00 0.00 0.00 78 1008.8
20220123053547 11 338 5.0 10.0 0.00 0.00 0.00 78 1007.8
20220123053047 12 22 7.0 9.0 0.00 0.00 0.00 78 1007.8
20220123052547 12 22 7.0 7.0 0.00 0.00 0.00 78 1007.8
20220123051607 12 22 8.0 8.0 0.00 0.00 0.00 78 1007.8
20220123050546 12 22 6.0 7.0 0.00 0.00 0.00 78 1007.8
20220123050047 12 22 4.0 7.0 0.00 0.00 0.00 78 1007.8
20220123045046 12 0 8.0 8.0 0.00 0.00 0.00 78 1007.8
20220123044607 12 22 4.0 5.0 0.00 0.00 0.00 78 1007.8
20220123044106 12 22 6.0 6.0 0.00 0.00 0.00 78 1007.8
20220123043546 12 22 4.0 5.0 0.00 0.00 0.00 78 1007.8
20220123042546 12 22 4.0 5.0 0.00 0.00 0.00 78 1007.8
20220123041106 12 0 5.0 5.0 0.00 0.00 0.00 78 1007.8
20220123035546 12 22 4.0 5.0 0.00 0.00 0.00 78 1007.8
20220123034046 12 22 3.0 5.0 0.00 0.00 0.00 78 1007.8
20220123033546 12 22 4.0 4.0 0.00 0.00 0.00 78 1008.8
20220123033046 12 22 3.0 5.0 0.00 0.00 0.00 78 1008.8
20220123032546 12 22 4.0 4.0 0.00 0.00 0.00 78 1008.8
20220123032106 12 45 4.0 4.0 0.00 0.00 0.00 78 1008.8
20220123031546 12 22 4.0 5.0 0.00 0.00 0.00 78 1008.8
20220123031045 12 22 3.0 3.0 0.00 0.00 0.00 78 1008.8
20220123030606 12 68 2.0 7.0 0.00 0.00 0.00 78 1008.8
20220123030046 12 45 4.0 6.0 0.00 0.00 0.00 78 1008.8
20220123025605 12 22 6.0 6.0 0.00 0.00 0.00 78 1007.8
20220123025045 12 22 3.0 4.0 0.00 0.00 0.00 78 1007.8
20220123024605 12 68 5.0 6.0 0.00 0.00 0.00 78 1007.8
20220123024045 12 22 4.0 5.0 0.00 0.00 0.00 78 1008.8
20220123023545 12 90 4.0 5.0 0.00 0.00 0.00 78 1008.8
20220123021625 12 68 4.0 5.0 0.00 0.00 0.00 78 1009.8
20220123021045 12 90 4.0 4.0 0.00 0.00 0.00 78 1009.8
20220123020605 12 68 3.0 5.0 0.00 0.00 0.00 78 1010.8
20220123020045 12 22 5.0 5.0 0.00 0.00 0.00 78 1010.8
20220123015045 12 68 4.0 5.0 0.00 0.00 0.00 78 1011.8
20220123014545 12 22 3.0 4.0 0.00 0.00 0.00 78 1011.8
20220123013105 12 90 4.0 4.0 0.00 0.00 0.00 78 1010.8
20220123012545 12 90 4.0 4.0 0.00 0.00 0.00 78 1011.8
20220123012105 12 112 4.0 4.0 0.00 0.00 0.00 78 1011.8
20220123011544 12 68 3.0 4.0 0.00 0.00 0.00 78 1011.8
20220123011045 12 90 2.0 3.0 0.00 0.00 0.00 78 1010.8
20220123010544 12 90 5.0 5.0 0.00 0.00 0.00 78 1010.8
20220123005044 13 90 3.0 3.0 0.00 0.00 0.00 78 1012.8
20220123003044 12 90 2.0 3.0 0.00 0.00 0.00 78 1012.8
20220123002044 12 45 2.0 2.0 0.00 0.00 0.00 78 1012.8
20220123001604 12 158 0.0 3.0 0.00 0.00 0.00 78 1012.8
20220123001104 12 135 2.0 3.0 0.00 0.00 0.00 78 1012.8
20220123000544 12 135 2.0 3.0 0.00 0.00 0.00 78 1012.8
20220123000124 12 158 2.0 3.0 0.00 0.00 0.00 78 1012.8
20220122235543 12 180 2.0 2.0 0.00 0.00 0.00 78 1012.8
20220122234543 12 180 2.0 3.0 0.00 0.00 0.00 78 1013.7
20220122234043 12 158 1.0 1.0 0.00 0.00 0.00 78 1013.7
20220122232543 12 158 0.0 2.0 0.00 0.00 0.00 78 1013.7
20220122232043 12 202 3.0 3.0 0.00 0.00 0.00 78 1014.7
20220122231603 12 202 4.0 4.0 0.00 0.00 0.00 78 1014.7
20220122230623 12 180 3.0 3.0 0.00 0.00 0.00 78 1013.7
20220122230103 12 225 2.0 3.0 0.00 0.00 0.00 78 1013.7
20220122225043 13 202 3.0 5.0 0.00 0.00 0.00 78 1014.7
20220122224043 13 202 3.0 3.0 0.00 0.00 0.00 78 1014.7
20220122223643 13 202 3.0 3.0 0.00 0.00 0.00 78 1013.7
20220122223043 13 202 2.0 4.0 0.00 0.00 0.00 78 1013.7
20220122221543 14 248 4.0 4.0 0.00 0.00 0.00 78 1014.7
20220122221103 14 180 6.0 6.0 0.00 0.00 0.00 78 1014.7
20220122220543 14 202 6.0 6.0 0.00 0.00 0.00 79 1014.7
20220122215043 14 180 3.0 5.0 0.00 0.00 0.00 78 1014.7
20220122213602 14 248 3.0 4.0 0.00 0.00 0.00 77 1014.7
20220122213122 14 202 3.0 5.0 0.00 0.00 0.00 77 1014.7
20220122212602 14 225 3.0 4.0 0.00 0.00 0.00 77 1014.7
20220122212042 14 180 4.0 4.0 0.00 0.00 0.00 77 1015.7
20220122211542 14 202 3.0 4.0 0.00 0.00 0.00 76 1015.7
20220122211102 14 270 4.0 4.0 0.00 0.00 0.00 68 1015.7
20220122205042 13 270 3.0 4.0 0.00 0.00 0.00 68 1016.7
20220122204042 13 338 2.0 3.0 0.00 0.00 0.00 68 1016.7
20220122203042 14 248 5.0 5.0 0.00 0.00 0.00 68 1015.7
20220122202542 14 292 2.0 3.0 0.00 0.00 0.00 68 1015.7
20220122202042 14 292 5.0 5.0 0.00 0.00 0.00 68 1015.7
20220122201102 14 338 5.0 5.0 0.00 0.00 0.00 69 1015.7
20220122200542 14 292 3.0 3.0 0.00 0.00 0.00 80 1016.7
20220122195042 13 292 4.0 8.0 0.00 0.00 0.00 80 1016.7
20220122193041 12 338 5.0 7.0 0.00 0.00 0.00 80 1017.7
20220122192041 12 248 7.0 7.0 0.00 0.00 0.00 80 1018.7
20220122191121 11 338 5.0 5.0 0.00 0.00 0.00 80 1018.7
20220122190601 11 315 7.0 7.0 0.00 0.00 0.00 80 1019.7
20220122190041 11 292 3.0 3.0 0.00 0.00 0.00 80 1019.7
20220122185601 12 270 5.0 6.0 0.00 0.00 0.00 80 1019.7
20220122185041 12 248 3.0 4.0 0.00 0.00 0.00 80 1018.7
20220122184101 12 270 4.0 7.0 0.00 0.00 0.00 80 1018.7
20220122182601 12 270 9.0 9.0 0.00 0.00 0.00 80 1018.7
20220122182121 12 248 8.0 9.0 0.00 0.00 0.00 80 1018.7
20220122180121 12 315 5.0 7.0 0.00 0.00 0.00 80 1019.7
20220122174541 12 292 8.0 10.0 0.00 0.00 0.00 80 1019.7
20220122173601 12 248 5.0 8.0 0.00 0.00 0.00 80 1019.7
20220122173101 12 248 6.0 8.0 0.00 0.00 0.00 80 1019.7
20220122172600 12 270 7.0 9.0 0.00 0.00 0.00 80 1019.7
20220122172040 12 248 4.0 7.0 0.00 0.00 0.00 80 1019.7
20220122171120 12 270 5.0 10.0 0.00 0.00 0.00 80 1019.7
20220122170040 12 248 7.0 9.0 0.00 0.00 0.00 80 1020.7
20220122165540 12 292 5.0 10.0 0.00 0.00 0.00 80 1020.7
20220122165040 12 270 3.0 7.0 0.00 0.00 0.00 80 1020.7
20220122164040 11 248 4.0 7.0 0.00 0.00 0.00 80 1020.7